CZ-4 DEB

基本信息
目录编号:
20893
目录名称:
CZ-4 DEB
国际标识:
1990-081BD
轨道中心:
EARTH
物体状态:
在轨
发射日期:
1990-09-03 UTC
轨道信息
数据来源: 国际轨道数据
星历时间: 2026-07-14T01:09:59+0800
半长轴: 6857.685km
偏心率: 0.0005104
轨道倾角: 98.079°
近地点辐角: 163.841°
升交点赤经: 245.155°
平近点角: 314.761°
近地点: 476.047km
远地点: 483.049km
周期: 94.195分钟
每日圈数: 15.287501
详细信息
发射场:
TSC
轨道高度:
LEO
数据来源:
AOE Integration Group
参考系:
TEME
时间系统:
UTC
历元类型:
SGP4
2D轨道图
3D轨道图
轨道高度分析图
轨道倾角分析图
轨道综合分析图
查看轨道综合分析图